Flag for Mexico Weather past 2 weeks in Guadalajara, Jalisco, Mexico

Now
64 °F

Passing clouds.


Feels Like: 64 °F
Forecast: 63 / 78 °F
Wind: 5 mph from Southeast

Location: Don Miguel / Guadalaj

Current Time: Aug 23, 2014 at 12:33:04 AM

Latest Report: Aug 22, 2014 at 11:52 PM


Visibility: 10 mi

Pressure: 30.16 "Hg

Humidity: 83%

Dew point: 59 °F

Location of GuadalajaraLocation

Historic Weather in Guadalajara — Graph

°F

Guadalajara temperature yesterday

Maximum temperature yesterday: 79 °F (at 3:53 PM)
Minimum temperature yesterday: 61 °F (at 3:45 AM)
Average temperature yesterday: 69 °F

Past Weeks' High & Low Weather Summary

 TemperatureHumidityPressure
High84 °F (Aug 17, 5:48 PM)100% (Aug 19, 1:42 AM)30.27 "Hg (Aug 19, 1:42 AM)
Low57 °F (Aug 9, 6:55 AM)28% (Aug 21, 5:19 PM)29.73 "Hg (Aug 12, 12:48 AM)
Average69 °F71%30.09 "Hg
* Reported Aug 7 10:47 PM — Aug 22 10:47 PM, Guadalajara, Weather by CustomWeather, © 2014

Note: Actual official high and low records may vary slightly from our data, if they occured in-between our weather recording intervals... More about our weather records

Advertising

Guadalajara weather history for previous 24 hours

 ConditionsComfort  
Time TempWeatherWind HumidityBarometerVisibility
10:47 PM
Aug 22
66 °FPassing clouds.3 mph78%30.18 "Hg10 mi
8:51 PM70 °FPartly sunny.8 mph60%30.13 "Hg10 mi
7:46 PM77 °FPartly sunny.7 mph47%30.11 "Hg10 mi
6:52 PM79 °FPartly sunny.8 mph42%29.74 "Hg10 mi
5:50 PM79 °FPartly sunny.10 mph42%30.09 "Hg8 mi
4:45 PM79 °FPartly sunny.7 mph42%30.11 "Hg6 mi
3:53 PM79 °FPartly sunny.8 mph48%29.82 "Hg5 mi
1:46 PM73 °FMostly cloudy.No wind61%30.20 "Hg5 mi
12:46 PM73 °FBroken clouds.No wind65%29.92 "Hg4 mi
11:45 AM70 °FBroken clouds.No wind73%30.23 "Hg3 mi
10:47 AM66 °FFog.No wind88%30.25 "Hg2 mi
9:56 AM64 °FFog.No wind88%29.99 "Hg2 mi
8:55 AM63 °FFog.No wind94%30.23 "Hg2 mi
7:55 AM61 °FFog.No wind94%30.22 "Hg2 mi
7:21 AM63 °FSleet. Overcast.N/A88%30.22 "HgN/A
6:49 AM64 °FMostly cloudy.No wind83%29.94 "Hg8 mi
5:49 AM63 °FPartly cloudy.No wind88%30.19 "Hg8 mi
4:45 AM61 °FPassing clouds.No wind94%30.19 "Hg10 mi
3:45 AM61 °FPartly cloudy.No wind94%29.86 "Hg10 mi
Weather by CustomWeather, © 2014

See weather overviewHow to use our weather pages